This demonstration page uses our WeatherBlox Daily Observations layout. Learn more.

Left ArrowRight Arrow

41.12389, -100.76542

Hourly Observations for September 16, 2017

Temp ( °F °C ) Dew Point ( °F °C ) Humidity (%) Winds ( mph kmh ) Pressure ( in mb ) Visibility ( mi km ) Precip ( " mm )
12:53 am 00:53 Partly Cloudy 64 17.8 61 16.1 90 90 NNE 21 33 29.75 1008 10 16 0.00 0.00
1:02 am 01:02 Mostly Cloudy 64 17.8 61 16.1 90 90 NE 23 37 29.77 1008 10 16 0.00 0.00
1:53 am 01:53 Cloudy 63 17.2 59 15 87 87 NNE 24 39 29.75 1008 10 16 0.00 0.00
2:45 am 02:45 Cloudy 62 16.7 58 14.4 86 86 NNE 20 31 29.77 1008 10 16 0.00 0.00
2:53 am 02:53 Cloudy 62 16.7 58 14.4 86 86 NNE 17 28 29.79 1009 10 16 0.00 0.00
3:37 am 03:37 Cloudy with Light Rain 59 15 57 13.9 93 93 N 18 30 29.85 1011 8 13 0.00 0.03
3:53 am 03:53 Cloudy 58 14.4 55 12.8 90 90 NNE 25 41 29.82 1010 10 16 0.00 0.03
4:33 am 04:33 Cloudy with Light Rain 57 13.9 55 12.8 93 93 N 21 33 29.88 1012 10 16 0.00 0.03
4:43 am 04:43 Cloudy with Rain 56 13.3 54 12.2 93 93 N 18 30 29.88 1012 5 8 0.00 0.03
4:53 am 04:53 Cloudy with Light Rain 56 13.3 54 12.2 93 93 N 14 22 29.88 1012 7 11 0.01 0.25
5:03 am 05:03 Cloudy 56 13.3 54 12.2 93 93 NNW 13 20 29.94 1014 10 16 0.00 0.03
5:19 am 05:19 Cloudy 56 13.3 53 11.7 90 90 N 15 24 29.88 1012 10 16 0.00 0.03
5:53 am 05:53 Cloudy with Light Rain 55 12.8 52 11.1 90 90 N 9 15 29.90 1013 10 16 0.00 0.03
6:53 am 06:53 Mostly Cloudy 53 11.7 50 10 89 89 NNE 10 17 29.89 1012 10 16 0.00 0.03
7:53 am 07:53 Cloudy 53 11.7 50 10 89 89 N 9 15 29.96 1015 10 16 0.00 0.00
8:46 am 08:46 Cloudy 53 11.7 50 10 89 89 N 9 15 30.00 1016 10 16 0.00 0.00
8:53 am 08:53 Cloudy 53 11.7 50 10 89 89 N 9 15 29.98 1015 10 16 0.00 0.00
9:53 am 09:53 Cloudy 55 12.8 49 9.4 80 80 N 10 17 30.01 1016 10 16 0.00 0.00
10:21 am 10:21 Cloudy 55 12.8 49 9.4 80 80 N 14 22 30.00 1016 10 16 0.00 0.00
10:50 am 10:50 Cloudy 55 13 48 9 77 77 N 16 26 30.03 1017 10 16 0.00 0.00
10:53 am 10:53 Cloudy 55 12.8 49 9.4 80 80 NNW 14 22 30.03 1017 10 16 0.00 0.00
11:12 am 11:12 Cloudy 54 12.2 49 9.4 83 83 NNW 14 22 30.06 1018 10 16 0.00 0.00
11:53 am 11:53 Cloudy 57 13.9 48 8.9 72 72 N 13 20 30.06 1018 10 16 0.00 0.00
12:00 pm 12:00 Cloudy 57 13.9 48 8.9 72 72 N 16 26 30.06 1018 10 16 0.00 0.00
12:53 pm 12:53 Mostly Cloudy 58 14.4 47 8.3 67 67 N 12 19 30.06 1018 10 16 0.00 0.00
1:53 pm 13:53 Cloudy 60 15.6 48 8.9 65 65 NNW 10 17 30.05 1018 10 16 0.00 0.00
2:43 pm 14:43 Mostly Sunny 63 17.2 49 9.4 60 60 NNW 8 13 30.03 1017 10 16 0.00 0.00
2:53 pm 14:53 Mostly Sunny 63 17.2 49 9.4 60 60 NW 10 17 30.03 1017 10 16 0.00 0.00
3:53 pm 15:53 Sunny 65 18.3 48 8.9 54 54 NNE 8 13 30.01 1016 10 16 0.00 0.00
4:53 pm 16:53 Sunny 67 19.4 49 9.4 53 53 NNE 9 15 30.02 1017 10 16 0.00 0.00
5:53 pm 17:53 Sunny 66 18.9 48 8.9 52 52 N 8 13 30.03 1017 10 16 0.00 0.00
6:53 pm 18:53 Sunny 65 18.3 48 8.9 54 54 N 6 9 30.05 1018 10 16 0.00 0.00
7:53 pm 19:53 Clear 58 14.4 49 9.4 72 72 NE 6 9 30.07 1018 10 16 0.00 0.00
8:53 pm 20:53 Clear 53 11.7 47 8.3 80 80 NNE 6 9 30.11 1020 10 16 0.00 0.00
9:53 pm 21:53 Clear 49 9.4 46 7.8 90 90 NE 3 6 30.13 1020 10 16 0.00 0.00
10:53 pm 22:53 Clear 50 10 46 7.8 86 86 NE 7 11 30.16 1021 10 16 0.00 0.00
11:53 pm 23:53 Clear 50 10 46 7.8 86 86 NE 10 17 30.16 1021 10 16 0.00 0.00

Powered by AerisWeather